PulseSat

PulseSat

MOLNIYA 1-62

Last updated on Dec. 9, 2018, 12:08 a.m. UTC

1 15214U 84089A   18342.08597794 -.00000332  00000-0 -10658-1 0  9990
2 15214  62.7696 205.2897 7125807 263.7894  18.3121  1.97935035218776
UTC
Height (km)
Latitude
Longitude
Inclination
Orbital Period

Next 30 passes for location: Hong Kong

Rise time Rise Azimuth (degrees) Set time Set Azimuth (degrees) Duration Max altitude (degrees)

No matching passes for this satellites

PulseSat

PulseSat is the new satellites software and hardware trackering solution by Pulsely.
Satellite Two Line Element Set source: US Air Force Space Command

Download PulseSat for iOS
© 2017 Pulsely Limited